Aérodrome :
LOGIN :

S'inscrire | Disclaimer

   EN    FR    IT 

 










Légende :    VFR   VFR Marginal   IFR   IFR Intensif   IFR Très Intensif
Visi : 
Plafond : 
>= 8 km
>= 3000ft
5 à 8 km
1000 à 3000 ft
1500m à 5 km
500 à 1000 ft
800 à 1500m
200 à 500 ft
< 800m
< 200 ft
Symboles :   Orages  Brouillard  Fortes neiges  Fortes précipitations  Vent > 20 kt
SIGMETs :   Divers  Orages  Givrage  Turbulence  Onde Orograph.  Cendres Volcan.






- Altitude de l'aérodrome : 446 ft
- Code IATA : VNE


LFRV - Vannes-Meucon

DERNIER METAR :
  • 271400Z AUTO 33012KT 280V360 9999 BKN031 BKN038 10/03 Q1010

METARs EXPIRÉS :
  • 271330Z AUTO 32015KT 290V350 9999 BKN028 OVC037 10/04 Q1009
  • 271300Z AUTO 33013G24KT 290V360 9999 OVC032 10/05 Q1008
  • 271230Z AUTO 34015G26KT 300V010 9999 BKN027 OVC032 09/04 Q1007
  • 271200Z AUTO 32018KT 9999 SCT021 BKN028 BKN034 09/05 Q1006
  • 271130Z AUTO 32017KT 280V360 9999 BKN022 BKN027 OVC032 09/05 Q1005

TAF N/A



MET'MAP, la Météo Aéronautique d'un coup d'oeil ! - Copyright ORBIFLY Décembre 2007 - Disclaimer

ORBIFLY MET'MAP TEAM :

Programmation & Développement : Alexandra Zaïnal
Sur une idée originale de : Baudouin d'Aumeries
Assistance à la programmation : Marc-Olivier Méhu
Soutien technique & logistique : Manuel Goepfert

Contact : metmap@orbifly.com




SOURCES & CREDITS :

   NOAA